This demonstration page uses our WeatherBlox Daily Observations layout. Learn more.

Left ArrowRight Arrow

39.29038, -76.61219

Hourly Observations for February 12, 2019

Temp ( °F °C ) Dew Point ( °F °C ) Humidity (%) Winds ( mph kmh ) Pressure ( in mb ) Visibility ( mi km ) Precip ( " mm )
12:54 am 00:54 undefined 33 0.6 30 -1.1 89 89 undefined N/A 30.32 1027 N/A 0.01 0.25
1:54 am 01:54 undefined 33 0.6 30 -1.1 89 89 undefined N/A 30.31 1027 N/A 0.02 0.51
2:54 am 02:54 undefined 33 0.6 30 -1.1 89 89 undefined N/A 30.29 1026 N/A 0.01 0.25
3:54 am 03:54 undefined 33 0.6 29 -1.7 85 85 undefined N/A 30.27 1025 N/A 0.02 0.51
4:54 am 04:54 undefined 33 0.6 29 -1.7 85 85 undefined N/A 30.27 1025 N/A N/A
5:54 am 05:54 undefined 33 0.6 30 -1.1 89 89 undefined N/A 30.23 1024 N/A 0.01 0.25
6:54 am 06:54 undefined 33 0.6 30 -1.1 89 89 undefined N/A 30.24 1024 N/A 0.03 0.76
7:54 am 07:54 undefined 34 1.1 31 -0.6 89 89 undefined N/A 30.23 1024 N/A 0.05 1.27
8:54 am 08:54 undefined 34 1.1 31 -0.6 89 89 undefined N/A 30.24 1024 N/A 0.04 1.02
9:54 am 09:54 undefined 34 1.1 31 -0.6 89 89 undefined N/A 30.17 1022 N/A 0.10 2.54
10:54 am 10:54 undefined 35 1.7 32 undefined 89 89 undefined N/A 30.17 1022 N/A 0.11 2.79
11:54 am 11:54 undefined 35 1.7 32 undefined 89 89 undefined N/A 30.15 1021 N/A 0.09 2.29
12:54 pm 12:54 undefined 35 1.7 32 undefined 89 89 undefined N/A 30.07 1018 N/A 0.07 1.78
1:54 pm 13:54 undefined 36 2.2 33 0.6 89 89 undefined N/A 30.01 1016 N/A 0.03 0.76
2:54 pm 14:54 undefined 36 2.2 33 0.6 89 89 undefined N/A 29.95 1014 N/A 0.09 2.29
3:54 pm 15:54 undefined 36 2.2 34 1.1 93 93 undefined N/A 29.93 1014 N/A 0.04 1.02
4:54 pm 16:54 undefined 37 2.8 34 1.1 89 89 undefined N/A 29.87 1012 N/A 0.02 0.51
5:54 pm 17:54 undefined 37 2.8 35 1.7 93 93 undefined N/A 29.83 1010 N/A 0.01 0.25
6:54 pm 18:54 undefined 37 2.8 35 1.7 93 93 undefined N/A 29.84 1011 N/A 0.01 0.25
7:54 pm 19:54 undefined 38 3.3 35 1.7 89 89 undefined N/A 29.80 1009 N/A 0.02 0.51
8:54 pm 20:54 undefined 39 3.9 36 2.2 89 89 undefined N/A 29.77 1008 N/A N/A
9:54 pm 21:54 undefined 39 3.9 36 2.2 89 89 undefined N/A 29.74 1007 N/A 0.01 0.25
10:54 pm 22:54 undefined 38 3.3 36 2.2 93 93 undefined N/A 29.68 1005 N/A 0.01 0.25
11:54 pm 23:54 undefined 38 3.3 36 2.2 93 93 undefined N/A 29.66 1004 N/A 0.01 0.25

Powered by AerisWeather